Simultaneous Nadir Overpasses (SNOs) Predictions

Prediction of SNOs between GOES-15 and METOP-B Satellite Orbit:

Table of predicted SNOs for the next 14.0 days since TLE Epoch: 12/1/2024
Index Date Time (GOES-15) GOES-15 Lat,Lon METOP-B Lat,Lon Distance(km) Time Diff (sec)
1 12/02/2024 05:20:16 -0.16, 61.49 0.49, 58.61 327.84 80
2 12/03/2024 05:02:11 -0.16, 61.48 -0.64, 63.62 244.38 80
3 12/04/2024 17:21:01 0.15, 61.55 -0.39, 59.05 284.47 80
4 12/05/2024 16:57:35 0.15, 61.55 0.69, 64.07 286.56 80
5 12/07/2024 05:16:17 -0.14, 61.47 0.30, 59.53 221.00 80
6 12/08/2024 04:58:12 -0.14, 61.46 -0.85, 64.54 350.95 80
7 12/09/2024 17:17:01 0.13, 61.53 -0.21, 59.97 177.34 80
8 12/10/2024 16:53:34 0.14, 61.54 0.88, 64.99 393.35 80
9 12/12/2024 05:12:17 -0.13, 61.47 0.08, 60.44 115.74 80
10 12/13/2024 04:54:10 -0.13, 61.46 -1.03, 65.46 455.66 80
11 12/14/2024 17:13:00 0.12, 61.54 -0.00, 60.90 72.68 80
